Location: Burera
(21.3780°N, 81.9534°E)
Time: 12:16:43
(UTC+00:00)

Cosmos 2082 Rocket - Pass Details

Date: 13 August 2020
Orbit: 835 x 852 km, 71.0° (Epoch: 21 September)

Event Time Altitude Azimuth Distance (km) Brightness Sun altitude
Rises 13:36:11 0° 185° (S) 3,402 5.2 -8.0°
Reaches altitude 10° 13:38:41 10° 181° (S) 2,467 4.4 -8.6°
Maximum altitude 13:44:11 53° 105° (ESE) 1,028 2.3 -9.8°
Drops below altitude 10° 13:49:41 10° 29° (NNE) 2,466 4.5 -11.0°
Sets 13:52:10 0° 25° (NNE) 3,401 5.3 -11.5°
